• In Italy
  • List of Countries
  • For 7 days
  • Water Temperature
  • Satellite Maps
  • Weather Map
  • Weather Widgets
  • user-avatar
    Login

    Hourly Weather Argentat

    Today, 24 November, Friday

    Time Temperature Precipitation Wind Pressure Humidity
    00:00 +13°C° 0 mm 2 mps 744 mmHg 84%
    01:00 +12°C° 0 mm 2 mps 744 mmHg 86%
    02:00 +12°C° 0 mm 2 mps 744 mmHg 87%
    03:00 +10°C° 0 mm 2 mps 743 mmHg 89%
    04:00 +10°C° 0 mm 2 mps 743 mmHg 89%
    05:00 +10°C° 0 mm 2 mps 743 mmHg 90%
    06:00 +10°C° 0 mm 2 mps 743 mmHg 91%
    07:00 +12°C° 0.2 mm 2 mps 744 mmHg 89%
    08:00 +12°C° 0.2 mm 2 mps 744 mmHg 87%
    09:00 +13°C° 0.2 mm 2 mps 744 mmHg 85%
    10:00 +13°C° 0.7 mm 2 mps 744 mmHg 87%
    11:00 +13°C° 0.7 mm 2 mps 744 mmHg 90%
    12:00 +13°C° 0.7 mm 2 mps 744 mmHg 93%
    13:00 +14°C° 0 mm 2 mps 743 mmHg 92%
    14:00 +14°C° 0 mm 1 mps 743 mmHg 90%
    15:00 +14°C° 0 mm 1 mps 743 mmHg 89%
    16:00 +14°C° 0.1 mm 1 mps 742 mmHg 91%
    17:00 +13°C° 0.1 mm 1 mps 742 mmHg 93%
    18:00 +13°C° 0.1 mm 2 mps 742 mmHg 95%
    19:00 +13°C° 0.2 mm 2 mps 742 mmHg 94%
    20:00 +13°C° 0.2 mm 2 mps 742 mmHg 94%
    21:00 +13°C° 0.2 mm 2 mps 742 mmHg 93%
    22:00 +13°C° 0.4 mm 2 mps 741 mmHg 93%
    23:00 +12°C° 0.4 mm 3 mps 741 mmHg 93%

    Tomorrow, 25 November, Saturday

    Time Temperature Precipitation Wind Pressure Humidity
    00:00 +12°C° 0.4 mm 3 mps 741 mmHg 92%
    01:00 +12°C° 2.2 mm 3 mps 741 mmHg 94%
    02:00 +11°C° 2.2 mm 3 mps 741 mmHg 95%
    03:00 +11°C° 2.2 mm 3 mps 741 mmHg 97%
    04:00 +10°C° 1.5 mm 3 mps 742 mmHg 96%
    05:00 +10°C° 1.5 mm 3 mps 742 mmHg 96%
    06:00 +9°C° 1.5 mm 2 mps 743 mmHg 96%
    07:00 +9°C° 0.3 mm 3 mps 744 mmHg 94%
    08:00 +9°C° 0.3 mm 3 mps 744 mmHg 92%
    09:00 +9°C° 0.3 mm 3 mps 745 mmHg 90%
    10:00 +9°C° 0.2 mm 3 mps 745 mmHg 86%
    11:00 +8°C° 0.2 mm 4 mps 746 mmHg 83%
    12:00 +8°C° 0.2 mm 4 mps 746 mmHg 80%
    13:00 +8°C° 0.1 mm 4 mps 747 mmHg 80%
    14:00 +8°C° 0.1 mm 3 mps 747 mmHg 80%
    15:00 +8°C° 0.1 mm 3 mps 748 mmHg 80%
    16:00 +7°C° 0.1 mm 3 mps 749 mmHg 83%
    17:00 +6°C° 0.1 mm 2 mps 749 mmHg 87%
    18:00 +5°C° 0.1 mm 2 mps 750 mmHg 90%
    19:00 +4°C° 0 mm 2 mps 751 mmHg 91%
    20:00 +3°C° 0 mm 2 mps 752 mmHg 92%
    21:00 +4°C° 0 mm 1 mps 752 mmHg 92%
    22:00 +3°C° 0 mm 1 mps 753 mmHg 93%
    23:00 +2°C° 0 mm 1 mps 753 mmHg 94%

    Day after tomorrow, 26 November, Sunday

    Time Temperature Precipitation Wind Pressure Humidity
    00:00 +2°C° 0 mm 1 mps 753 mmHg 95%
    01:00 +2°C° 0 mm 1 mps 754 mmHg 96%
    02:00 +1°C° 0 mm 1 mps 754 mmHg 96%
    03:00 0°C° 0 mm 0 mps 754 mmHg 96%
    04:00 0°C° 0 mm 0 mps 754 mmHg 96%
    05:00 0°C° 0 mm 0 mps 755 mmHg 96%
    06:00 0°C° 0 mm 0 mps 755 mmHg 96%
    07:00 +1°C° 0 mm 0 mps 755 mmHg 91%
    08:00 +3°C° 0 mm 1 mps 756 mmHg 86%
    09:00 +4°C° 0 mm 1 mps 756 mmHg 81%
    10:00 +5°C° 0 mm 1 mps 756 mmHg 72%
    11:00 +6°C° 0 mm 2 mps 756 mmHg 64%
    12:00 +7°C° 0 mm 2 mps 756 mmHg 56%
    13:00 +7°C° 0 mm 2 mps 756 mmHg 56%
    14:00 +7°C° 0 mm 2 mps 755 mmHg 56%
    15:00 +7°C° 0 mm 2 mps 755 mmHg 56%
    16:00 +5°C° 0 mm 2 mps 755 mmHg 65%
    17:00 +4°C° 0 mm 1 mps 755 mmHg 73%
    18:00 +3°C° 0 mm 1 mps 755 mmHg 82%
    19:00 +2°C° 0 mm 1 mps 756 mmHg 84%
    20:00 +2°C° 0 mm 1 mps 756 mmHg 86%
    21:00 +2°C° 0 mm 1 mps 756 mmHg 88%
    22:00 +2°C° 0 mm 1 mps 756 mmHg 89%
    23:00 0°C° 0 mm 0 mps 756 mmHg 90%

    27 November, Monday

    Time Temperature Precipitation Wind Pressure Humidity
    00:00 0°C° 0 mm 0 mps 756 mmHg 91%
    01:00 0°C° 0 mm 0 mps 755 mmHg 91%
    02:00 +1°C° 0 mm 1 mps 755 mmHg 91%
    03:00 +1°C° 0 mm 1 mps 755 mmHg 91%
    04:00 +1°C° 0 mm 1 mps 755 mmHg 92%
    05:00 +1°C° 0 mm 1 mps 755 mmHg 93%
    06:00 +1°C° 0 mm 1 mps 755 mmHg 94%
    07:00 +2°C° 0 mm 1 mps 755 mmHg 86%
    08:00 +3°C° 0 mm 1 mps 755 mmHg 79%
    09:00 +5°C° 0 mm 1 mps 755 mmHg 72%
    10:00 +6°C° 0 mm 1 mps 754 mmHg 64%
    11:00 +8°C° 0 mm 1 mps 754 mmHg 57%
    12:00 +9°C° 0 mm 1 mps 753 mmHg 49%
    13:00 +9°C° 0 mm 1 mps 753 mmHg 51%
    14:00 +9°C° 0 mm 1 mps 753 mmHg 53%
    15:00 +8°C° 0 mm 1 mps 752 mmHg 55%
    16:00 +6°C° 0 mm 1 mps 752 mmHg 64%
    17:00 +4°C° 0 mm 1 mps 753 mmHg 72%
    18:00 +2°C° 0 mm 1 mps 753 mmHg 80%
    19:00 +2°C° 0 mm 1 mps 753 mmHg 81%
    20:00 +2°C° 0 mm 1 mps 753 mmHg 82%
    21:00 0°C° 0 mm 0 mps 753 mmHg 83%
    22:00 0°C° 0 mm 0 mps 752 mmHg 83%
    23:00 0°C° 0 mm 0 mps 752 mmHg 82%

    28 November, Tuesday

    Time Temperature Precipitation Wind Pressure Humidity
    00:00 0°C° 0 mm 0 mps 752 mmHg 82%
    01:00 0°C° 0 mm 0 mps 751 mmHg 80%
    02:00 0°C° 0 mm 0 mps 751 mmHg 79%
    03:00 0°C° 0 mm 0 mps 751 mmHg 78%
    04:00 0°C° 0 mm 0 mps 750 mmHg 77%
    05:00 0°C° 0 mm 0 mps 750 mmHg 76%
    06:00 0°C° 0 mm 0 mps 750 mmHg 75%
    07:00 +1°C° 0 mm 0 mps 749 mmHg 68%
    08:00 +3°C° 0 mm 0 mps 749 mmHg 62%
    09:00 +4°C° 0 mm 0 mps 749 mmHg 55%
    10:00 +6°C° 0 mm 0 mps 748 mmHg 51%
    11:00 +9°C° 0 mm 1 mps 747 mmHg 46%
    12:00 +10°C° 0 mm 1 mps 746 mmHg 42%
    13:00 +10°C° 0 mm 1 mps 746 mmHg 46%
    14:00 +9°C° 0 mm 1 mps 745 mmHg 50%
    15:00 +9°C° 0 mm 1 mps 745 mmHg 53%
    16:00 +7°C° 0 mm 1 mps 745 mmHg 61%
    17:00 +5°C° 0 mm 1 mps 745 mmHg 68%
    18:00 +3°C° 0 mm 1 mps 744 mmHg 75%
    19:00 +3°C° 0 mm 1 mps 744 mmHg 76%
    20:00 +3°C° 0 mm 1 mps 744 mmHg 76%
    21:00 +3°C° 0 mm 1 mps 744 mmHg 76%
    22:00 +3°C° 0.1 mm 1 mps 744 mmHg 76%
    23:00 +3°C° 0.1 mm 1 mps 744 mmHg 77%

    29 November, Wednesday

    Time Temperature Precipitation Wind Pressure Humidity
    00:00 +3°C° 0.1 mm 1 mps 743 mmHg 77%
    01:00 +3°C° 0.3 mm 1 mps 743 mmHg 79%
    02:00 +3°C° 0.3 mm 1 mps 743 mmHg 81%
    03:00 +3°C° 0.3 mm 1 mps 742 mmHg 82%
    04:00 +3°C° 0.3 mm 1 mps 742 mmHg 84%
    05:00 +3°C° 0.3 mm 1 mps 742 mmHg 86%
    06:00 +3°C° 0.3 mm 1 mps 742 mmHg 88%
    07:00 +4°C° 0.1 mm 1 mps 741 mmHg 89%
    08:00 +4°C° 0.1 mm 1 mps 741 mmHg 89%
    09:00 +4°C° 0.1 mm 1 mps 741 mmHg 90%
    10:00 +4°C° 0.3 mm 2 mps 741 mmHg 90%
    11:00 +4°C° 0.3 mm 2 mps 741 mmHg 91%
    12:00 +5°C° 0.3 mm 2 mps 741 mmHg 91%
    13:00 +5°C° 0.4 mm 2 mps 741 mmHg 92%
    14:00 +6°C° 0.4 mm 1 mps 741 mmHg 93%
    15:00 +6°C° 0.4 mm 1 mps 741 mmHg 94%
    16:00 +5°C° 0 mm 1 mps 741 mmHg 94%
    17:00 +4°C° 0 mm 1 mps 742 mmHg 95%
    18:00 +3°C° 0 mm 1 mps 742 mmHg 96%
    19:00 +3°C° 0 mm 1 mps 743 mmHg 96%
    20:00 +1°C° 0 mm 0 mps 744 mmHg 96%
    21:00 +1°C° 0 mm 0 mps 744 mmHg 96%
    22:00 +1°C° 0 mm 0 mps 744 mmHg 96%
    23:00 +1°C° 0 mm 0 mps 745 mmHg 97%
    Show more